CW9098 Weather Reports


Display with metric or nautical units.
time (UTC)temp
F
wind
direction
speed
MPH
gust
MPH
rain 1hr
in
rain 24hr
in
rain mn
in
humidity
%
barometer
mb
20260510170621 62 232 3.0 10.0 0.00 0.01 0.00 75 1014.4
20260510170114 62 280 6.0 9.0 0.00 0.01 0.00 74 1014.3
20260510165630 62 320 0.0 9.0 0.00 0.01 0.00 75 1014.3
20260510165138 62 281 2.0 8.0 0.00 0.01 0.00 75 1014.3
20260510164624 62 264 2.0 13.0 0.00 0.01 0.00 74 1014.4
20260510164155 63 301 7.0 13.0 0.00 0.01 0.00 73 1014.4
20260510163627 63 272 5.0 11.0 0.00 0.01 0.00 72 1014.3
20260510163121 63 270 2.0 6.0 0.00 0.01 0.00 73 1014.2
20260510162616 62 248 2.0 5.0 0.00 0.01 0.00 72 1014.1
20260510162129 62 260 0.0 6.0 0.00 0.01 0.00 73 1014.2
20260510161636 62 262 1.0 10.0 0.00 0.01 0.00 73 1014.3
20260510161125 62 230 4.0 10.0 0.00 0.01 0.00 73 1014.4
20260510160618 63 274 2.0 10.0 0.00 0.01 0.00 73 1014.4
20260510160132 63 272 4.0 10.0 0.00 0.01 0.00 73 1014.4
20260510155640 63 295 5.0 10.0 0.00 0.01 0.00 72 1014.2
20260510155132 63 295 4.0 9.0 0.00 0.01 0.00 71 1014.1
20260510154639 64 243 3.0 10.0 0.00 0.01 0.00 71 1014.0
20260510154134 64 247 4.0 10.0 0.00 0.01 0.00 70 1014.0
20260510153620 64 276 4.0 8.0 0.00 0.01 0.00 71 1013.9
20260510153135 64 249 3.0 8.0 0.00 0.01 0.00 71 1013.7
20260510152649 64 281 1.0 8.0 0.00 0.01 0.00 71 1013.7
20260510152157 64 215 3.0 9.0 0.00 0.01 0.00 70 1013.8
20260510151623 64 222 5.0 9.0 0.00 0.01 0.00 72 1013.8
20260510151117 64 245 4.0 11.0 0.00 0.01 0.00 72 1013.9
20260510150630 64 291 7.0 11.0 0.00 0.01 0.00 71 1013.7
20260510150117 64 226 7.0 11.0 0.00 0.01 0.00 73 1013.7
20260510145632 64 257 5.0 9.0 0.00 0.01 0.00 74 1013.6
20260510145140 64 212 3.0 11.0 0.00 0.01 0.00 73 1013.5
20260510144633 63 279 6.0 11.0 0.00 0.01 0.00 75 1013.6
20260510144121 63 245 2.0 8.0 0.00 0.01 0.00 77 1013.6
20260510143634 63 230 4.0 6.0 0.00 0.01 0.00 77 1013.6
20260510143121 63 210 1.0 5.0 0.00 0.01 0.00 78 1013.6
20260510142636 63 201 1.0 7.0 0.00 0.01 0.00 78 1013.5
20260510142121 64 176 4.0 9.0 0.00 0.01 0.00 77 1013.4
20260510141615 64 151 4.0 9.0 0.00 0.01 0.00 77 1013.3
20260510141132 64 152 5.0 10.0 0.00 0.01 0.00 78 1013.2
20260510140618 64 172 5.0 10.0 0.00 0.01 0.00 80 1013.1
20260510140152 63 160 3.0 7.0 0.00 0.01 0.00 80 1013.0
20260510135639 63 188 3.0 9.0 0.00 0.01 0.00 79 1012.9
20260510135125 63 195 5.0 8.0 0.00 0.01 0.00 80 1012.9
20260510134659 62 203 2.0 7.0 0.00 0.01 0.00 80 1012.8
20260510134142 62 210 3.0 7.0 0.00 0.01 0.00 81 1012.8
20260510133634 61 185 3.0 5.0 0.00 0.01 0.00 82 1012.7
20260510133120 61 209 2.0 5.0 0.00 0.01 0.00 82 1012.8
20260510132656 61 190 1.0 7.0 0.00 0.01 0.00 82 1012.7
20260510132122 61 188 3.0 8.0 0.00 0.01 0.00 82 1012.6
20260510131633 61 196 6.0 8.0 0.00 0.01 0.00 82 1012.7
20260510131140 60 168 2.0 8.0 0.00 0.01 0.00 83 1012.6
20260510130633 60 204 2.0 8.0 0.00 0.01 0.00 83 1012.6
20260510130120 59 216 5.0 8.0 0.00 0.01 0.00 84 1012.7
20260510125636 59 219 2.0 7.0 0.00 0.01 0.00 84 1012.4
20260510125121 59 205 4.0 7.0 0.00 0.01 0.00 85 1012.4
20260510124634 58 203 4.0 8.0 0.00 0.01 0.00 86 1012.6
20260510124122 58 205 5.0 10.0 0.00 0.01 0.00 86 1012.6
20260510123636 57 183 4.0 8.0 0.00 0.01 0.00 86 1012.7
20260510123124 57 180 1.0 7.0 0.00 0.01 0.00 86 1012.6
20260510122620 56 178 4.0 8.0 0.00 0.01 0.00 86 1012.6
20260510122135 56 179 2.0 5.0 0.00 0.01 0.00 86 1012.5
20260510121620 55 166 3.0 5.0 0.00 0.01 0.00 86 1012.4
20260510121137 55 201 1.0 4.0 0.00 0.01 0.00 86 1012.4
20260510120621 54 205 1.0 3.0 0.00 0.01 0.00 87 1012.4
20260510120114 54 209 0.0 0.0 0.00 0.01 0.00 87 1012.4
20260510115645 53 210 0.0 0.0 0.00 0.01 0.00 86 1012.3
20260510115117 53 210 0.0 1.0 0.00 0.01 0.00 87 1012.2
20260510114652 53 209 0.0 2.0 0.00 0.01 0.00 87 1012.1
20260510114127 52 209 0.0 4.0 0.00 0.01 0.00 87 1012.0
20260510113641 52 212 0.0 2.0 0.00 0.01 0.00 87 1012.1
20260510113134 51 212 0.0 4.0 0.00 0.01 0.00 87 1012.2
20260510112622 51 212 2.0 4.0 0.00 0.01 0.00 87 1012.2
20260510112136 51 215 0.0 0.0 0.00 0.01 0.00 87 1012.2
20260510111622 50 215 0.0 0.0 0.00 0.01 0.00 87 1012.0
20260510111139 50 216 0.0 0.0 0.00 0.01 0.00 87 1012.0
20260510110632 49 216 0.0 0.0 0.00 0.01 0.00 87 1011.8
20260510110140 49 216 0.0 0.0 0.00 0.01 0.00 87 1011.8
20260510105633 49 216 0.0 3.0 0.00 0.01 0.00 87 1011.8
20260510105121 48 215 1.0 3.0 0.00 0.01 0.00 87 1011.7
20260510104656 48 220 1.0 3.0 0.00 0.01 0.00 87 1011.7
20260510104124 48 222 0.0 1.0 0.00 0.01 0.00 87 1011.6
20260510103615 48 222 0.0 5.0 0.00 0.01 0.00 87 1011.4
20260510103130 48 222 2.0 5.0 0.00 0.01 0.00 87 1011.3
20260510102618 48 203 2.0 5.0 0.00 0.01 0.00 87 1011.0
20260510102127 48 201 1.0 5.0 0.00 0.01 0.00 87 1010.9
20260510101640 48 210 3.0 5.0 0.00 0.01 0.00 87 1011.0
20260510101127 48 208 2.0 4.0 0.00 0.01 0.00 87 1011.0
20260510100621 48 210 1.0 3.0 0.00 0.01 0.00 87 1011.0
20260510100135 48 210 0.0 4.0 0.00 0.01 0.00 87 1010.9
20260510095623 48 211 2.0 4.0 0.00 0.01 0.00 87 1010.9
20260510095135 48 212 2.0 4.0 0.00 0.01 0.00 87 1010.9
20260510094621 48 216 0.0 4.0 0.00 0.01 0.00 87 1010.8
20260510094157 49 217 0.0 2.0 0.00 0.01 0.00 87 1010.7
20260510093623 49 217 0.0 3.0 0.00 0.01 0.00 87 1010.7
20260510093116 49 217 1.0 3.0 0.00 0.01 0.00 87 1010.7
20260510092632 49 217 0.0 2.0 0.00 0.01 0.00 87 1010.7
20260510092138 50 217 0.0 4.0 0.00 0.01 0.00 87 1010.7
20260510091631 50 217 2.0 4.0 0.00 0.01 0.00 87 1010.7
20260510091119 50 218 0.0 4.0 0.00 0.01 0.00 87 1010.6
20260510090634 50 218 1.0 4.0 0.00 0.01 0.01 87 1010.5
20260510090120 51 220 2.0 5.0 0.00 0.01 0.01 87 1010.5
20260510085616 51 215 4.0 5.0 0.00 0.01 0.01 87 1010.4
20260510085131 51 219 2.0 5.0 0.00 0.01 0.01 87 1010.3
20260510084619 51 219 0.0 4.0 0.00 0.01 0.01 87 1010.2
20260510084133 52 221 2.0 4.0 0.00 0.01 0.01 87 1010.3
20260510083619 52 185 1.0 5.0 0.00 0.01 0.01 87 1010.3
20260510083134 52 206 4.0 5.0 0.00 0.01 0.01 87 1010.7
20260510082623 52 218 2.0 6.0 0.00 0.01 0.01 87 1010.8
20260510082118 52 222 1.0 6.0 0.00 0.01 0.01 87 1010.8
20260510081613 52 267 1.0 7.0 0.00 0.01 0.01 87 1010.7
20260510081125 52 264 0.0 1.0 0.00 0.01 0.01 87 1010.6
20260510080637 52 231 0.0 3.0 0.00 0.01 0.01 87 1010.5
20260510080129 52 231 0.0 5.0 0.00 0.01 0.01 87 1010.5
20260510075624 52 230 3.0 5.0 0.00 0.01 0.01 87 1010.6
20260510075118 52 221 0.0 5.0 0.00 0.01 0.01 87 1010.4
20260510074632 52 188 2.0 4.0 0.00 0.01 0.01 87 1010.5
20260510074123 52 191 0.0 2.0 0.00 0.01 0.01 87 1010.6
20260510073616 52 192 0.0 0.0 0.00 0.01 0.01 87 1010.8
20260510073131 53 191 0.0 5.0 0.00 0.01 0.01 87 1010.8
20260510072638 53 191 1.0 5.0 0.00 0.01 0.01 87 1010.9
20260510072144 53 191 0.0 1.0 0.00 0.01 0.01 87 1011.0
20260510071617 52 210 0.0 10.0 0.00 0.01 0.01 87 1011.1
20260510071152 52 210 2.0 13.0 0.00 0.01 0.01 87 1010.8
20260510070618 52 331 8.0 13.0 0.00 0.01 0.01 87 1011.3
20260510070133 51 301 2.0 5.0 0.00 0.01 0.01 87 1010.7
20260510065619 51 214 0.0 0.0 0.00 0.01 0.01 87 1009.9
20260510065134 51 214 0.0 0.0 0.00 0.01 0.01 87 1009.6
20260510064621 51 214 0.0 0.0 0.00 0.01 0.01 87 1009.8
20260510064118 52 214 0.0 0.0 0.00 0.01 0.01 87 1009.8
20260510063633 52 214 0.0 0.0 0.00 0.01 0.01 87 1010.0
20260510063122 52 214 0.0 0.0 0.00 0.01 0.01 87 1010.1
20260510062638 52 214 0.0 0.0 0.00 0.01 0.01 87 1010.1
20260510062125 52 201 0.0 0.0 0.00 0.01 0.01 87 1010.2
20260510061657 52 203 0.0 0.0 0.00 0.01 0.01 87 1010.3
20260510061122 52 205 0.0 4.0 0.00 0.01 0.01 87 1010.4
20260510060636 52 205 1.0 4.0 0.00 0.01 0.01 86 1010.3
20260510060131 52 206 1.0 4.0 0.00 0.01 0.01 86 1010.4
20260510055620 53 217 0.0 0.0 0.00 0.01 0.01 86 1010.4
20260510055155 53 216 0.0 0.0 0.00 0.01 0.01 86 1010.4
20260510054620 53 212 0.0 0.0 0.00 0.01 0.01 86 1010.4
20260510054135 53 212 0.0 4.0 0.00 0.01 0.01 86 1010.4
20260510053622 54 212 1.0 4.0 0.00 0.01 0.01 86 1010.6
20260510053137 54 225 2.0 4.0 0.00 0.01 0.01 85 1010.7
20260510052633 54 154 0.0 1.0 0.00 0.01 0.01 85 1010.7
20260510052121 54 153 0.0 3.0 0.00 0.01 0.01 85 1010.8
20260510051635 54 141 1.0 3.0 0.00 0.01 0.01 84 1010.9
20260510051143 55 89 0.0 5.0 0.00 0.01 0.01 84 1010.9
20260510050636 55 79 3.0 6.0 0.00 0.01 0.01 83 1010.9
20260510050122 55 74 2.0 4.0 0.00 0.01 0.01 83 1011.0
20260510045638 55 95 1.0 3.0 0.00 0.01 0.01 82 1011.2
20260510045127 55 99 0.0 6.0 0.00 0.01 0.01 82 1011.2
20260510044622 56 353 2.0 6.0 0.00 0.01 0.01 82 1011.2
20260510044118 56 290 0.0 15.0 0.00 0.01 0.01 82 1011.2
20260510043623 56 337 7.0 15.0 0.00 0.01 0.01 81 1011.3
20260510043117 56 299 9.0 22.0 0.00 0.01 0.01 82 1011.3
20260510042633 55 305 11.0 22.0 0.00 0.01 0.01 85 1011.4
20260510042120 53 322 11.0 23.0 0.00 0.01 0.01 87 1011.3
20260510041635 49 298 12.0 18.0 0.00 0.01 0.01 87 1011.6
20260510041124 47 67 0.0 6.0 0.00 0.01 0.01 87 1011.1
20260510040637 47 66 2.0 6.0 0.00 0.01 0.01 87 1010.8
20260510040143 47 245 0.0 3.0 0.00 0.01 0.01 87 1010.6
20260510035623 47 174 0.0 5.0 0.00 0.01 0.01 87 1010.3
20260510035136 47 174 2.0 5.0 0.00 0.01 0.01 87 1010.3
20260510034624 47 221 0.0 0.0 0.00 0.01 0.01 87 1010.3
20260510034121 48 221 0.0 0.0 0.00 0.01 0.01 87 1009.9
20260510033635 48 221 0.0 0.0 0.00 0.01 0.01 87 1009.7
20260510033121 48 221 0.0 0.0 0.00 0.01 0.01 87 1009.7
20260510032638 47 221 0.0 2.0 0.00 0.01 0.01 87 1009.6
20260510032123 47 221 1.0 3.0 0.00 0.01 0.01 87 1009.6
20260510031618 46 221 3.0 3.0 0.00 0.01 0.01 87 1009.6
20260510031134 47 221 1.0 3.0 0.00 0.01 0.01 87 1009.5
20260510030621 47 222 0.0 2.0 0.00 0.01 0.01 87 1009.5
20260510030156 47 222 0.0 0.0 0.00 0.01 0.01 87 1009.4
20260510025644 47 222 0.0 4.0 0.00 0.01 0.01 87 1009.4
20260510025153 47 222 2.0 4.0 0.00 0.01 0.01 87 1009.2
20260510024625 47 220 3.0 5.0 0.00 0.01 0.01 87 1009.2
20260510024141 47 220 3.0 5.0 0.00 0.01 0.01 87 1009.3
20260510023627 47 222 2.0 3.0 0.00 0.01 0.01 86 1009.2
20260510023122 47 222 1.0 2.0 0.00 0.01 0.01 86 1009.2
20260510022638 48 222 0.0 0.0 0.00 0.01 0.01 86 1009.2
20260510022126 48 222 0.0 2.0 0.00 0.01 0.01 86 1009.2
20260510021640 49 222 0.0 3.0 0.00 0.01 0.01 86 1009.2
20260510021127 49 222 2.0 3.0 0.00 0.01 0.01 86 1009.2
20260510020620 49 222 2.0 3.0 0.00 0.01 0.01 86 1009.2
20260510020135 49 222 0.0 4.0 0.00 0.01 0.01 86 1009.2
20260510015624 49 222 3.0 5.0 0.00 0.01 0.01 86 1009.2
20260510015137 49 224 2.0 5.0 0.00 0.01 0.01 86 1009.2
20260510014625 50 223 2.0 4.0 0.00 0.01 0.01 85 1009.2
20260510014201 50 224 2.0 6.0 0.00 0.01 0.01 85 1009.1
20260510013645 50 224 4.0 6.0 0.00 0.01 0.01 85 1009.1
20260510013118 51 222 2.0 4.0 0.00 0.01 0.01 84 1009.0
20260510012635 51 227 0.0 2.0 0.00 0.01 0.01 83 1008.9
20260510012121 52 227 0.0 4.0 0.00 0.01 0.01 83 1008.8
20260510011636 52 221 1.0 4.0 0.00 0.01 0.01 82 1008.8
20260510011123 53 214 0.0 0.0 0.00 0.01 0.01 82 1008.6
20260510010637 53 214 0.0 0.0 0.00 0.01 0.01 81 1008.5
20260510010123 53 212 0.0 0.0 0.00 0.01 0.01 80 1008.5
20260510005618 54 204 0.0 0.0 0.00 0.01 0.01 80 1008.4
20260510005147 54 204 0.0 0.0 0.00 0.01 0.01 78 1008.3
20260510004640 55 204 0.0 0.0 0.00 0.01 0.01 77 1008.2
20260510004128 56 204 0.0 0.0 0.00 0.01 0.01 76 1008.1
20260510003622 57 205 0.0 0.0 0.00 0.01 0.01 75 1008.2
20260510003136 57 205 0.0 0.0 0.00 0.01 0.01 72 1008.1
20260510002623 58 205 0.0 0.0 0.00 0.01 0.01 70 1008.0
20260510002136 60 204 0.0 3.0 0.00 0.01 0.01 67 1007.9
20260510001624 60 204 0.0 3.0 0.00 0.01 0.01 67 1007.9
20260510001119 61 205 0.0 7.0 0.00 0.01 0.01 66 1007.7
20260510000634 62 206 3.0 7.0 0.00 0.01 0.01 64 1007.8
20260510000120 63 212 0.0 4.0 0.00 0.01 0.01 63 1007.7
20260509235657 64 212 1.0 4.0 0.00 0.01 0.01 61 1007.7
20260509235121 65 224 0.0 2.0 0.00 0.01 0.01 59 1007.6
20260509234635 66 224 0.0 4.0 0.00 0.01 0.01 58 1007.5
20260509234122 66 221 1.0 6.0 0.00 0.01 0.01 57 1007.5
20260509233636 66 206 2.0 6.0 0.00 0.01 0.01 57 1007.4
20260509233142 67 182 3.0 5.0 0.00 0.01 0.01 57 1007.3
20260509232656 67 190 2.0 10.0 0.00 0.01 0.01 56 1007.4
20260509232138 67 181 3.0 11.0 0.00 0.01 0.01 55 1007.4
20260509231631 67 205 4.0 9.0 0.00 0.01 0.01 55 1007.3
20260509231127 67 201 1.0 9.0 0.00 0.01 0.01 54 1007.2
20260509230620 67 171 6.0 9.0 0.00 0.01 0.01 55 1007.2
20260509230134 67 228 3.0 10.0 0.00 0.01 0.01 55 1007.2
20260509225643 67 251 4.0 10.0 0.00 0.01 0.01 54 1007.4
20260509225136 67 188 3.0 17.0 0.00 0.01 0.01 54 1007.4
20260509224619 68 179 4.0 19.0 0.00 0.01 0.01 57 1007.5
20260509224134 68 208 1.0 9.0 0.00 0.01 0.01 59 1007.4
20260509223621 68 180 1.0 9.0 0.00 0.01 0.01 58 1007.4
20260509223135 67 157 4.0 11.0 0.00 0.01 0.01 61 1007.5
20260509222644 67 214 3.0 10.0 0.00 0.01 0.01 61 1007.5
20260509222136 66 197 3.0 10.0 0.00 0.01 0.01 62 1007.7
20260509221622 66 172 3.0 11.0 0.00 0.01 0.01 63 1007.6
20260509221140 66 163 5.0 11.0 0.00 0.01 0.01 64 1007.7
20260509220634 65 191 2.0 9.0 0.00 0.01 0.01 64 1007.7
20260509220141 65 178 5.0 11.0 0.00 0.01 0.01 65 1007.7
20260509215636 65 228 4.0 8.0 0.00 0.01 0.01 66 1007.7
20260509215123 65 194 1.0 8.0 0.00 0.01 0.01 65 1007.6
20260509214654 65 191 4.0 10.0 0.00 0.01 0.01 65 1007.7
20260509214149 65 211 2.0 7.0 0.00 0.01 0.01 65 1007.7
20260509213703 66 176 1.0 8.0 0.00 0.01 0.01 65 1007.7
20260509213128 66 159 3.0 13.0 0.00 0.01 0.01 64 1007.6
20260509212704 67 176 5.0 17.0 0.00 0.01 0.01 64 1007.6
20260509212129 68 160 6.0 17.0 0.00 0.01 0.01 64 1007.6
20260509211702 68 147 5.0 15.0 0.00 0.01 0.01 62 1007.6
20260509211127 67 155 7.0 16.0 0.00 0.01 0.01 62 1007.6
20260509210619 65 207 9.0 16.0 0.00 0.01 0.01 62 1007.7
20260509210133 65 219 9.0 14.0 0.00 0.01 0.01 60 1007.7
20260509205623 66 215 9.0 17.0 0.00 0.01 0.01 59 1007.8
20260509205135 67 232 10.0 17.0 0.00 0.01 0.01 60 1008.0
20260509204623 67 227 9.0 16.0 0.00 0.01 0.01 60 1007.8
20260509204159 67 231 6.0 17.0 0.00 0.01 0.01 63 1007.9
20260509203624 66 195 7.0 17.0 0.00 0.01 0.01 63 1008.0
20260509203136 66 191 6.0 15.0 0.00 0.01 0.01 64 1008.0
20260509202645 66 222 7.0 15.0 0.00 0.01 0.01 67 1008.1
20260509202117 66 183 6.0 14.0 0.00 0.01 0.01 69 1008.1
20260509201632 65 245 4.0 11.0 0.00 0.01 0.01 70 1008.1
20260509201127 65 234 8.0 16.0 0.01 0.01 0.01 69 1008.2
20260509200620 65 179 9.0 16.0 0.01 0.01 0.01 69 1008.3
20260509200135 65 174 7.0 14.0 0.01 0.01 0.01 71 1008.4
20260509195623 65 185 9.0 14.0 0.01 0.01 0.01 73 1008.5
20260509195157 64 168 5.0 9.0 0.01 0.01 0.01 73 1008.5
20260509194621 64 214 4.0 11.0 0.01 0.01 0.01 77 1008.7
20260509194136 63 210 7.0 13.0 0.01 0.01 0.01 77 1008.8
20260509193622 63 210 5.0 13.0 0.01 0.01 0.01 80 1008.8
20260509193137 62 232 8.0 12.0 0.01 0.01 0.01 79 1008.8
20260509192626 61 193 5.0 12.0 0.01 0.01 0.01 84 1008.9
20260509192140 60 243 3.0 9.0 0.01 0.01 0.01 84 1009.0
20260509191627 60 206 2.0 6.0 0.01 0.01 0.01 85 1009.0
20260509191122 59 216 1.0 7.0 0.00 0.00 0.00 86 1009.1
20260509190636 58 215 1.0 9.0 0.00 0.00 0.00 86 1009.1
20260509190123 58 224 4.0 8.0 0.00 0.00 0.00 86 1009.2
20260509185639 57 205 2.0 6.0 0.00 0.00 0.00 86 1009.2
20260509185124 56 235 3.0 6.0 0.00 0.00 0.00 87 1009.2
20260509184635 56 226 4.0 7.0 0.00 0.00 0.00 87 1009.3
20260509184122 56 220 2.0 7.0 0.00 0.00 0.00 87 1009.4
20260509183651 56 225 1.0 9.0 0.00 0.00 0.00 87 1009.2
20260509183124 56 183 6.0 9.0 0.00 0.00 0.00 87 1009.2
20260509182620 56 214 3.0 8.0 0.00 0.00 0.00 87 1009.2
20260509182153 56 224 6.0 7.0 0.00 0.00 0.00 87 1009.2
20260509181620 55 227 1.0 9.0 0.00 0.00 0.00 87 1009.0
20260509181156 55 177 4.0 11.0 0.00 0.00 0.00 87 1009.0
20260509180619 55 209 5.0 9.0 0.00 0.00 0.00 87 1009.0
20260509180134 55 197 3.0 9.0 0.00 0.00 0.00 87 1009.0
20260509175623 55 228 4.0 8.0 0.00 0.00 0.00 87 1009.1
20260509175136 55 196 2.0 9.0 0.00 0.00 0.00 87 1009.1
20260509174624 55 185 4.0 9.0 0.00 0.00 0.00 87 1009.1
20260509174140 55 218 5.0 8.0 0.00 0.00 0.00 87 1009.1
20260509173646 55 203 3.0 7.0 0.00 0.00 0.00 87 1009.2
20260509173159 55 191 4.0 7.0 0.00 0.00 0.00 87 1009.2
20260509172627 55 218 4.0 9.0 0.00 0.00 0.00 87 1009.1
20260509172200 54 176 3.0 9.0 0.00 0.00 0.00 87 1009.1
20260509171626 54 198 2.0 7.0 0.00 0.00 0.00 87 1009.1
20260509171156 54 205 3.0 9.0 0.00 0.00 0.00 87 1009.2